Flag for U.S.A. Weather past 2 weeks in Montgomery, Alabama, U.S.A.

Now
39 °F

Overcast.


Feels Like: 31 °F
Forecast: 32 / 53 °F
Wind: 13 mph from North

Location: Maxwell Air Force Base / Montgomery

Current Time: Feb 26, 2015 at 7:09:59 PM

Latest Report: Feb 26, 2015 at 5:58 PM


Visibility: 10 mi

Pressure: 30.15 "Hg

Humidity: 73%

Dew point: 31 °F

Location of MontgomeryLocation

Historic Weather in Montgomery — Graph

°F

Montgomery temperature yesterday

Maximum temperature yesterday: 40 °F (at 9:58 AM)
Minimum temperature yesterday: 37 °F (at 11:58 AM)
Average temperature yesterday: 39 °F

Past Weeks' High & Low Weather Summary

 TemperatureHumidityPressure
High68 °F (Feb 22, 12:58 PM)100% (Feb 19, 6:58 AM)30.47 "Hg (Feb 19, 6:58 AM)
Low21 °F (Feb 20, 5:58 AM)18% (Feb 15, 1:58 PM)29.68 "Hg (Feb 25, 6:58 PM)
Average42 °F64%30.14 "Hg
* Reported Feb 11 5:58 PM — Feb 26 5:58 PM, Montgomery, Weather by CustomWeather, © 2015

Note: Actual official high and low records may vary slightly from our data, if they occured in-between our weather recording intervals... More about our weather records

Advertising

Montgomery weather history for previous 24 hours

 ConditionsComfort  
Time TempWeatherWind HumidityBarometerVisibility
5:58 PM
Thu, Feb 26
39 °FOvercast.13 mph73%30.15 "Hg10 mi
4:58 PM40 °FOvercast.13 mph73%30.12 "Hg10 mi
3:58 PM41 °FOvercast.8 mph73%30.08 "Hg10 mi
2:58 PM41 °FOvercast.9 mph77%30.06 "Hg10 mi
1:58 PM43 °FOvercast.12 mph74%30.05 "Hg10 mi
12:58 PM42 °FOvercast.10 mph77%30.04 "Hg10 mi
11:58 AM41 °FOvercast.9 mph82%30.04 "Hg10 mi
10:58 AM40 °FOvercast.8 mph85%30.02 "Hg10 mi
9:58 AM39 °FOvercast.7 mph85%30.01 "Hg10 mi
8:58 AM38 °FOvercast.6 mph88%29.99 "Hg10 mi
7:58 AM37 °FOvercast.6 mph89%29.95 "Hg10 mi
6:58 AM36 °FLow clouds.10 mph91%29.93 "Hg10 mi
5:58 AM36 °FLow clouds.5 mph92%29.90 "Hg10 mi
4:58 AM37 °FLow clouds.7 mph92%29.86 "Hg10 mi
4:03 AM37 °FLow clouds.3 mph93%29.83 "Hg10 mi
2:58 AM37 °FFog.7 mph95%29.81 "Hg5 mi
1:58 AM38 °FLow clouds.8 mph93%29.79 "Hg10 mi
12:58 AM38 °FLow clouds.6 mph92%29.74 "Hg10 mi
11:58 PM
Wed, Feb 25
39 °FLow clouds.7 mph94%29.74 "Hg10 mi
10:58 PM38 °FLow clouds.6 mph94%29.73 "Hg10 mi
9:58 PM38 °FLow clouds.8 mph95%29.73 "Hg10 mi
8:58 PM38 °FLow clouds.8 mph97%29.71 "Hg8 mi
7:58 PM38 °FLight rain. Low clouds.10 mph96%29.73 "Hg7 mi
Weather by CustomWeather, © 2015

See weather overviewHow to use our weather pages